100507 B42  0.1-  1.2+    100518 B90  0.3+  0.0     100606 585  0.4+  0.8-  
100507 B42  0.7-  0.6+    100518 B90  0.1+  0.2+    100606 585  0.7+  0.7+  
100507 B42  0.6-  0.2+    100519 H47  0.1-  0.1+    100606 118  0.5-  0.3+  
100507 J08 (5.7+  3.0-)   100519 H47  0.5-  0.5+    100607 118  0.4-  0.2+  
100508 J47  1.4-  0.6+    100519 H47  0.8+  0.5-    100607 118  1.0-  0.1-  
100508 J47 (2.5-  2.6+)   100519 J01  0.2-  0.1+    100607 118  1.1-  0.3-  
100508 J47  1.0-  0.0     100519 J01  0.3+  0.0     100607 118  0.3-  0.5+  
100508 J47  1.3-  0.6+    100520 H10  0.1+  0.3-    100607 H45  0.1+  0.2-  
100508 J47  0.2-  0.6+    100520 H10  0.2-  0.1-    100607 H45  0.5+  0.3-  
100508 H06  0.8+  0.4-    100520 H10  0.2+  0.4-    100607 H45  0.4+  0.4-  
100508 H06  1.1+  0.7-    100520 H10  0.1-  0.2-    100607 H45  0.1+  0.0   
100508 H06  0.9+  0.8-    100520 B70  0.3+  0.6-    100607 H45  0.0   0.2-  
100508 H06  0.3+  0.1+    100520 B70  0.1+  0.3+    100607 H45  0.1+  0.0   
100508 H06  0.1+  0.1-    100520 B70  0.1+  0.1+    100608 850  0.3+  0.4-  
100508 H10  0.3-  0.2+    100520 213  0.0   0.3+    100608 850  0.4+  0.2-  
100508 H10  0.1-  0.0     100520 213  0.3-  0.1+    100608 850  0.9+  0.3+  
100508 H10  0.3-  0.2+    100520 213  0.6-  0.2+    100610 215  0.0   0.4-  
100508 H45  0.5-  0.2+    100521 B96  0.5+  0.1+    100610 215  0.3+  0.7-  
100508 H45  0.3-  0.1+    100521 B96  0.8+  0.7-    100610 215  0.3+  0.5-  
100508 H45  0.3-  0.3+    100521 B96  0.1+  0.5-    100610 160  0.1+  0.6+  
100508 H45  0.3-  0.1-    100521 B96  0.8+  0.4-    100610 160  0.1+  0.3+  
100508 H45  0.5-  0.0     100521 B96  0.9+  0.1-    100610 160  0.2+  0.2+  
100508 H45  0.1-  0.0     100521 B96  0.4-  0.6+    100611 H06  1.2+  0.7-  
100508 H45  0.3-  0.0     100521 B96  0.3+  0.3-    100611 H06  1.4+  0.6-  
100508 H45  0.1-  0.1+    100521 B96  0.8-  0.1+    100611 H06  1.7+  0.4-  
100508 H06  0.2-  0.2+    100521 B96  0.1-  0.2+    100611 H10  0.1+  0.2-  
100508 H06  0.3-  0.6+    100521 B96  0.6+  0.5-    100611 H10  0.7+  0.5+  
100508 900  0.3-  0.1+    100521 941  0.2-  0.2-    100611 400  0.1-  0.4-  
100508 900  0.3-  0.5-    100521 941  0.2-  0.2-    100611 400  0.1-  0.3-  
100508 213  0.6-  0.1-    100521 941  0.1-  0.2-    100611 400  0.5-  0.1-  
100508 213  0.4-  0.1-    100521 H10  0.9-  0.4-    100611 160 (2.5+  1.6-) 
100508 J08  1.5-  0.5+    100521 H10  0.1-  0.3+    100611 160  0.2-  0.3+  
100509 J08  1.1-  0.3+    100521 367  0.1+  0.0     100611 160  0.1-  0.4+  
100509 B33  0.2+  0.4-    100521 367  0.3+  0.5+    100616 H45  0.3-  0.2-  
100509 B33  0.3+  0.3-    100521 367  0.2+  0.0     100616 H45  0.1-  0.3-  
100509 157  0.4-  0.3+    100521 D93  0.9+  0.2+    100616 H45  0.1-  0.2-  
100509 954  0.7+  0.1-    100521 D93  1.2-  0.8+    100616 H45  0.6-  0.3+  
100509 157  0.3-  0.1+    100521 D93  0.5-  0.2+    100616 H45  0.3-  0.2+  
100509 954  0.5+  0.1+    100521 D93  0.2-  1.3+    100616 H45  0.2+  0.3-  
100509 157  0.4-  0.2+    100521 900  0.2-  0.2-    100617 H10  0.4+  0.3-  
100509 B33  0.2+  0.4-    100521 900  0.1+  0.0     100617 H10  0.1-  0.0   
100509 954  1.1-  0.6+    100521 349  1.2+  0.7-    100617 H10  0.4-  0.5-  
100509 B53  1.3+  1.1-    100521 349  0.7+  0.2-    100618 H10 (2.7-  1.2+) 
100509 B53  1.6+  1.0-    100521 585  1.3-  0.2+    100618 H10  0.8-  0.4+  
100509 B53  1.2+  0.9-    100521 585  0.3-  0.6+    100618 H10  0.9+  0.0   
100509 B53  1.0+  0.9-    100521 585  0.6-  0.2+    100618 H10  0.2-  0.2+  
100509 B53  1.2+  0.6-    100521 585  1.1-  0.6+    100622 850  1.0+  0.5-  
100509 B53 (2.4+  1.1-)   100521 585  0.1+  0.3+    100622 850  0.4-  0.3-  
100509 B53  1.5+  1.1-    100521 585  0.6-  0.3+    100622 850  0.2-  0.9+  
100509 B53  1.5+  1.1-    100521 585  1.0-  0.5+    100622 213  0.3-  0.1-  
100509 B53  1.8+  1.2-    100521 C23 (5.5-  2.2+)   100622 213  0.2-  0.1-  
100509 B53  1.2+  0.8-    100521 C23 (2.3-  1.1+)   100622 213  0.3-  0.3-  
100509 B53  1.5+  1.1-    100521 A06  0.2+  0.1+    100622 587  0.5-  0.3-  
100509 B53  1.6+  0.7-    100521 A06  0.1+  0.0     100622 587  0.4+  0.0   
100509 A77  0.5+  0.1-    100521 C23 (3.3-  2.1+)   100701 C51  0.3+  0.3+  
100509 A77  0.1+  0.0     100521 A06  0.3+  0.0     100701 C51  0.5-  0.2+  
100509 A77  0.8+  0.2+    100521 J51  0.0   0.6+    100701 C51  0.1+  0.5+  
100509 H10 (2.5+  2.5-)   100521 C23 (3.0-  0.7+)   100705 691  0.5+  0.6-  
100509 H10 (2.4+  1.8-)   100521 J51  0.3-  0.4-    100705 691  0.8+  0.1+  
100509 D96  0.0   0.6-    100522 B96  1.0+  0.1+    100705 691  0.1-  0.2+  
100509 D96  0.4+  1.6-    100522 J51  0.3+  0.3+    100706 691  0.8+  0.7+  
100509 213  0.1-  0.4+    100522 B96  1.4+  0.8+    100706 691  0.7+  0.4+  
100509 J01  0.1-  0.4-    100522 B96  1.5-  0.0     100706 691  0.2-  0.2+  
100509 213  0.2-  0.0     100522 B96  0.8-  1.2+    100707 H10  0.4-  0.3-  
100509 J01  0.0   0.0     100522 B96  0.7-  0.5+    100707 H10  0.0   0.1-  
100509 J01  0.0   0.1-    100522 461  0.5+  0.5-    100707 H10  0.4-  0.1+  
100509 213  0.3-  0.2+    100522 461  0.7+  0.3-    100707 H10  0.4-  0.2+  
100510 844  0.3+  0.8-    100522 461  0.0   0.2-    100707 215  0.3-  0.6+  
100510 844  0.5+  0.5-    100522 H45  0.0   0.2-    100707 215  0.1+  0.2+  
100510 844  0.5-  0.3+    100522 H45  0.1-  0.1-    100707 215  0.4+  0.2-  
100510 844  0.4+  0.9-    100522 H45  0.2-  0.2+    100708 235  0.0   0.4-  
100510 844  0.4+  0.1-    100522 H45  0.5-  0.3-    100708 235  0.9-  1.2-  
100510 H10  0.2-  0.3+    100522 H45  0.5+  0.3+    100708 160  0.0   0.2+  
100510 H10  0.6+  0.1+    100522 H45  0.1-  0.2-    100708 160  0.0   0.0   
100510 H10 (3.5+  1.6-)   100522 H45  0.4+  0.5-    100708 160  0.2+  0.1-  
100510 H10  0.2+  0.0     100522 H10  0.4+  0.1+    100714 160  0.4-  0.0   
100510 H10 (2.5+  2.1-)   100522 H10  0.2+  0.3-    100714 160  0.1-  0.1-  
100510 H10 (2.1+  2.9-)   100522 H10  0.2+  0.1+    100714 160  0.0   1.0-  
100511 J47  0.9-  0.8+    100522 I99  0.4+  0.4-    100715 160  0.4-  0.0   
100511 J47  0.8-  0.7+    100522 I99  1.8-  0.0     100715 160  0.8-  0.2-  
100511 J47  0.8-  0.6+    100522 I99  0.2-  0.1-    100715 160  0.7-  0.6-  
100511 J47  1.0-  0.6+    100522 473  0.2+  0.5+    100715 160  0.9-  0.7-  
100511 H47  1.2-  0.1+    100522 473  0.1-  0.5+    100718 204  0.1+  0.6+  
100511 H47  0.1-  0.2+    100522 B33  0.2-  0.4-                            
100511 H47  0.3-  0.3-    100522 B33  0.1-  0.2-                            
NAKANO
         **** Don't distribute anyone except personal use only ****
           (C) Copyright 2010 Orbit.Astro.Assoc./ComputingSection
write mail from CFAD0::NAKANO on 2010-08-21 03:15:12(JST).


    C/2010 J1 (Boattini)
T 2010 Feb. 7.87487 TT                                  Nakano
q   1.7175134            (2000.0)            P               Q
                   Peri.  335.04858     +0.05354835     -0.72453665
                   Node   255.10224     -0.75453780     -0.48009595
e   1.0            Incl.  134.67924     -0.65406825     +0.49452454
From 222 observations 2010 May 6-14.
Residuals in seconds of arc
2010/                     100507 H10  0.1-  0.1+    100509 954  1.0-  1.0+
100506 703 (1.3+  2.4-)   100507 850  1.2+  0.9-    100509 B53  1.4+  0.6-
100506 703  0.2-  0.9-    100507 H10 (1.1-  2.7+)   100509 B53  1.7+  0.5-
100506 703 (2.4+  4.2-)   100507 H10 (2.6+  0.7+)   100509 B53  1.3+  0.4-
100506 703 (2.5+  3.6-)   100507 H10  0.1+  0.4+    100509 B53  1.1+  0.5-
100506 G96  0.6-  0.3-    100507 H10  0.9+  0.9-    100509 B53  1.3+  0.2-
100506 G96  0.9-  0.3-    100507 H10  0.4-  0.6+    100509 B53 (2.5+  0.7-)
100506 G96  0.8-  0.4-    100507 H10  0.2-  0.0     100509 B53  1.6+  0.7-
100506 G96  0.9-  0.2-    100507 H10  0.5+  0.9-    100509 B53  1.6+  0.6-
100506 703  0.3+  1.0-    100507 H10  1.8-  1.2+    100509 B53  1.9+  0.8-
100506 703 (0.8+  3.7-)   100507 850  0.2-  0.4-    100509 B53  1.2+  0.3-
100506 703  0.2-  1.0-    100507 854  1.3+  0.3-    100509 B53  1.6+  0.7-
100506 703  0.6+  1.7-    100507 854  1.6+  0.2-    100509 B53  1.6+  0.3-
100506 703 (0.2+  2.5-)   100507 854  0.6-  1.0-    100509 A77  0.5+  0.3+
100506 H06  0.4+  1.0-    100507 H11  0.6+  0.0     100509 A77  0.1+  0.4+
100506 H06  0.7+  1.1-    100507 H11  0.1-  0.7-    100509 A77  0.9+  0.6+
100506 H06  0.5-  0.5-    100507 H06  0.1+  0.3+    100509 H10 (2.6+  2.1-)
100506 H10  0.7-  0.9-    100507 926  0.1-  0.6+    100509 H10 (2.5+  1.4-)
100506 H10  0.1-  1.1-    100507 H11  0.7+  0.5-    100509 D96  0.0   0.0
100506 H10  0.2-  0.4-    100507 H11  0.6+  0.4-    100509 D96  0.5+  1.1-
100506 E94  0.7-  1.4-    100507 H06  0.4-  0.1+    100509 213  0.0   0.9+
100506 H06  1.7-  1.3+    100507 H06  0.4+  0.9-    100509 J01  0.0   0.1+
100506 H06  1.0-  0.7+    100507 926  0.2+  0.3+    100509 213  0.2-  0.5+
100506 H06  1.4-  0.7+    100507 926  0.3+  0.2+    100509 J01  0.1+  0.5+
100506 H06 (5.5+  4.1-)   100507 D96 (2.2+  0.4-)   100509 J01  0.1+  0.4+
100506 E94  1.0-  0.0     100507 D96 (2.2+  0.2+)   100509 213  0.3-  0.7+
100506 703  0.1-  0.7-    100507 900  0.9+  0.3-    100510 844  0.3+  0.3-
100506 703  0.1+  1.3-    100507 900  0.0   0.1+    100510 844  0.5+  0.0
100506 703  1.2+  1.2-    100507 300  0.4+  1.4-    100510 844  0.5-  0.8+
100506 703  0.9+  1.8-    100507 300  0.2+  1.1-    100510 844  0.4+  0.4-
100506 E94  1.2-  0.3-    100507 367  0.4+  0.3-    100510 844  0.5+  0.4+
100506 E94  0.7+  0.1+    100507 300  0.3+  0.3-    100510 H10  0.1-  0.8+
100506 E94  0.5-  0.0     100507 367  0.4+  0.1-    100510 H10  0.7+  0.6+
100506 E94  0.4-  0.6-    100507 367  0.1+  0.1-    100510 H10 (3.6+  1.1-)
100506 114  0.3+  0.3-    100507 D88  0.1-  0.5+    100510 H10  0.2+  0.4+
100506 114  0.6-  0.1+    100507 D88  0.2+  0.4+    100510 H10 (2.6+  1.6-)
100506 114  0.4-  0.0     100507 D88  0.1+  0.1-    100510 H10 (2.1+  2.4-)
